Find Starlink 32196

NORAD ID: 60430 Int'l Des: 2024-144 Owner: SPXS Country: US Constellation: starlink operational
LEOCIRCULAR

現在のビュー

3D地球を読み込み中...

About Starlink 32196

Starlink 32196 (NORAD 60430) is a starlink constellation satellite (v2 mini) launched Aug 12, 2024 by SPXS of US. It operates in LEO, CIRCULAR orbit with a mass of 730.00 kg.

Starlink 32196について

説明を読み込み中...

次回通過

Passes for default location (London). Set your location on the main map for personalized predictions.

高度履歴

Loading altitude history...

軌道要素

1 60430U 24144F 26168.12098138 .00002759 00000-0 92824-4 0 9995
2 60430 53.1599 113.7905 0001326 85.1300 274.9854 15.34376331104552
Epoch: Jun 17, 2026 • Age: 24 hours

現在のステータス

高度 465.6 km
速度 7.63 km/s
衛星直下点 -9.44°S, 17.97°W
打ち上げ日 Aug 12, 2024
運用期間 1.8 years
タイプ internet

技術仕様

分類 Payload
質量 730.00 kg
乾燥質量 700.00 kg
総質量 730.00 kg
長さ 0.30 m
直径 4.10 m
スパン 29.00 m
形状 Box + pan
製造者 SPXS
バスタイプ Starlink V2M
フェーズステータス In Orbit
所有者/国 SPXS/US

Most Searched